Regional Weather Roundup
Issued by NWS Raleigh/Durham, NC

Current Version | Previous Version | Graphics & Text | Print | Product List | Glossary On
Versions: 1 2 3 4 5 6 7 8 9 10 11 12 13 14 15 16 17 18 19 20 21 22 23 24 25 26 27 28 29 30 31 32 33 34 35 36 37 38 39 40 41 42 43 44 45 46 47 48 49 50
000
ASUS42 KRAH 181710
RWRRAH
NORTH CAROLINA WEATHER ROUNDUP
NATIONAL WEATHER SERVICE RALEIGH NC
1200 PM EST WED JAN 18 2017

NOTE: "FAIR" INDICATES FEW OR NO CLOUDS BELOW 12,000 FEET WITH NO
SIGNIFICANT WEATHER AND/OR OBSTRUCTIONS TO VISIBILITY.

NCZ001-053-055-056-065-067-181800-
WESTERN NORTH CAROLINA

CITY           SKY/WX    TMP DP  RH WIND       PRES   REMARKS
ASHEVILLE      SUNNY     59  40  49 N12G21    30.09F
JEFFERSON      SUNNY     49  32  52 NW26G36   30.01F
MORGANTON      SUNNY     66  33  30 NW7       30.07F
HICKORY        SUNNY     67  35  30 SW8G16    30.02F
RUTHERFORDTON  SUNNY     71  35  26 W12G17    30.02F
MOUNT AIRY     SUNNY     62  40  44 NW9G17    30.04F
BOONE          SUNNY     49  35  56 W35G51    30.00F
$$

NCZ021-022-025-041-071-084-088-181800-
CENTRAL NORTH CAROLINA

CITY           SKY/WX    TMP DP  RH WIND       PRES   REMARKS
CHARLOTTE      MOSUNNY   72  45  37 NW9       30.01F
GREENSBORO     MOSUNNY   65  37  35 NW13G25   30.00F
WINSTON-SALEM  SUNNY     65  35  33 NW12      30.02F
RALEIGH-DURHAM MOSUNNY   69  44  40 NW10G18   29.97F
FORT BRAGG     SUNNY     73  54  49 NW13      29.94F
FAYETTEVILLE   SUNNY     72  57  59 W12       29.95F
BURLINGTON     SUNNY     66  37  34 NW16G26   30.00S
LAURINBURG     SUNNY     73  57  57 W12G20    29.97F
$$

NCZ011-015-027-028-043-044-047-080-103-181800-
NORTHEASTERN NORTH CAROLINA

CITY           SKY/WX    TMP DP  RH WIND       PRES   REMARKS
ROCKY MT-WILSO SUNNY     69  49  48 W14       29.93F
GREENVILLE     MOSUNNY   68  59  73 W9G16     29.95F
WASHINGTON     PTSUNNY   66  59  76 W7        29.91F
ELIZABETH CITY SUNNY     68  51  54 NW20G29   29.88F
MANTEO         CLOUDY    61  60  94 W7        29.88F
CAPE HATTERAS  CLOUDY    61  59  93 W10G20    29.88F FOG
$$

NCZ078-087-090-091-093-098-101-181800-
SOUTHEASTERN NORTH CAROLINA

CITY           SKY/WX    TMP DP  RH WIND       PRES   REMARKS
LUMBERTON      MOSUNNY   70  60  70 W13       29.96F
GOLDSBORO      MOSUNNY   69  58  69 NW15G24   29.92F
KINSTON        MOSUNNY   66  59  77 W5        29.94F
KENANSVILLE    NOT AVBL
NEW BERN       PTSUNNY   65  61  87 W10G21    29.93F
CHERRY POINT   LGT RAIN  64  60  87 W15       29.93F
BEAUFORT       LGT RAIN  59  58  96 SW9       29.92F
JACKSONVILLE   LGT RAIN  63  62  97 W9        29.93F
WILMINGTON     CLOUDY    67  62  84 W9        29.96F
$$




USA.gov is the U.S. government's official web portal to all federal, state and local government web resources and services.